Regional Weather Roundup
Issued by NWS Wakefield, VA

Home | Current Version | Previous Version | Text Only | Print | Product List | Glossary Off
Versions: 1 2 3 4 5 6 7 8 9 10 11 12 13 14 15 16 17 18 19 20 21 22 23 24 25 26 27 28 29 30 31 32 33 34 35 36 37 38 39 40 41 42 43 44 45 46 47 48 49 50

000
ASUS41 KAKQ 132315
RWRAKQ

REGIONAL WEATHER ROUNDUP
NATIONAL WEATHER SERVICE WAKEFIELD VA
600 PM EST SAT FEB 13 2016

Note: "fair" indicates few or no clouds below 12,000 feet with no
significant weather and/or obstructions to visibility. * = Denotes
station may not report precipitation (e.g., rain,snow,etc.),
thunder or fog.

VAZ042-051-052>054-056-140000-
NORTHERN VIRGINIA

CITY           SKY/WX    TMP DP  RH WIND       PRES   REMARKS
WASH NATIONAL  FAIR      19  -8  30 NW17G31   30.39R WCI   4
DULLES         MOCLDY    17  -6  35 NW20G25   30.37R WCI   1
FORT BELVOIR   FAIR      19  -7  31 NW18G28   30.38R WCI   4
QUANTICO       FAIR      21  -6  30 N9G29     30.41R
FREDERICKSBRG* FAIR      21  -4  33 NW9G16    30.38R
STAFFORD*      FAIR      19  -7  31 NW16      30.41R WCI   4
WARRENTON      FAIR      19  -1  41 NW10G17   30.36R WCI   8
CULPEPER*      FAIR      19  -7  31 NW10      30.39R WCI   7
MANASSAS*      CLEAR     18  -4  38 NW20G28   30.38R WCI   1
LEESBURG*      CLOUDY    19   0  42 W17G23    30.38R WCI   4
WINCHESTER     MOCLDY    18  -4  38 W17G24    30.35R WCI   2
FRONT ROYAL*   CLOUDY    18  -6  35 W12G23    30.35R WCI   5
LURAY*         FAIR      16  -6  38 W9G22     30.35R
$$

VAZ048-049-060>072-079>083-140000-
CENTRAL AND SOUTH CENTRAL VIRGINIA

CITY           SKY/WX    TMP DP  RH WIND       PRES   REMARKS
RICHMOND       FAIR      24  -7  25 N18       30.34R WCI  10
CHESTERFIELD*  FAIR     N/A N/A N/A N10       30.34R
PETERSBURG*    FAIR      29 -16  13 NW10      30.33R WCI  19
HANOVER        FAIR      24  -7  25 NW8       30.36R
TAPPAHANNOCK*  FAIR      23  -8  25 NW8G17    30.36R
QUINTON*       FAIR      25  -7  24 NW13      30.33R WCI  14
CHARLOTTSVILLE FAIR      21  -9  26 N8        30.34R
GORDONSVILLE*  FAIR      20  -7  29 N5        30.35R
ORANGE*        FAIR      21  -6  30 NW7       30.38R
LOUISA*        FAIR      21  -6  30 N12       30.33R WCI   9
BUMPASS*       FAIR      22  -6  29 N7        30.34R
FARMVILLE*     FAIR      26 -10  20 CALM      30.33R
CREWE*         FAIR      25  -6  25 NW12      30.33R WCI  15
FORT PICKETT*  FAIR      25  -8  22 NW14G21   30.32R WCI  13
CHASE CITY*    FAIR      25  -8  22 NW13G21   30.34R WCI  14
CLARKSVILLE*   FAIR      27  -4  26 NW8       30.35R
SOUTH HILL*    FAIR      26  -4  27 W6        30.39R
LAWRENCEVILLE* FAIR      27  -5  24 NW7       30.32R
EMPORIA*       FAIR      28  -6  22 W10G22    30.35R WCI  19
$$

VAZ088>098-140000-
SOUTHEAST VIRGINIA

CITY           SKY/WX    TMP DP  RH WIND       PRES   REMARKS
NORFOLK        FAIR      29  -4  24 NW8       30.31R
VIRGINIA BEACH FAIR      31  -1  25 NW13G24   30.30R WCI  21
NORFOLK NAVAL  FAIR      29  -3  25 NW21G26   30.32R WCI  16
WEST POINT*    FAIR      25  -6  26 NW13G20   30.35R WCI  13
SALUDA*        FAIR      24  -2  32 NW20G29   30.33R WCI   9
NEWPORT NEWS   FAIR      27  -5  24 NW13G28   30.32R WCI  16
LANGLEY AFB    FAIR      27  -6  23 NW8       30.30R
FORT EUSTIS    FAIR      28  -1  29 NW16G22   30.30R WCI  16
WILLIAMSBURG*  FAIR      28   0  29 NW9G22    30.33R
HR EXEC AP*    FAIR      28  -2  26 N5        30.32R
FRANKLIN*      FAIR      28  -4  25 W9        30.33R
US460-WAKEFLD  FAIR      29  -6  22 N8        30.32R
$$

VAZ020-022-025-037-045-140000-
WEST CENTRAL AND SOUTHWEST VIRGINIA

CITY           SKY/WX    TMP DP  RH WIND       PRES   REMARKS
STAUNTON*      FAIR      20  -7  29 NW12      30.33R WCI   8
WAYNESBORO*    FAIR      16 -14  25 NW14G21   30.28R WCI   2
HOT SPRINGS VA FAIR       6  -8  51 W15G21    30.06R WCI -12
LYNCHBURG      FAIR      20  -8  28 W9G17     30.34R
DANVILLE       FAIR      26  -3  28 NW10      30.37R WCI  16
SOUTH BOSTON*  FAIR      25  -6  25 NW5       30.37R
MARTINSVILLE   FAIR      21  -4  33 NW14      30.38R WCI   8
ROANOKE        FAIR      19  -7  31 W14       30.36R WCI   6
BLACKSBURG     FAIR      16  -1  46 NW15G22   30.31R WCI   1
DUBLIN*        FAIR      17  -2  44 NW17      30.31R WCI   1
MARION*        FAIR      16  -1  47 W9        30.29R
HILLSVILLE*    FAIR      15  -3  46 NW15G25   30.21R WCI   0
RICHLANDS*     FAIR      14  -3  47 NW6       30.28R
WISE*          FAIR      18  -6  35 NW6       30.31R
ABINGDON*      FAIR      22  -2  35 N8        30.33R
$$

MDZ021>025-VAZ099-100-140000-
SOUTHERN MARYLAND AND THE DELMARVA PENINSULA

CITY           SKY/WX    TMP DP  RH WIND       PRES   REMARKS
PATUXENT RIVER PTCLDY    20  -6  31 NW17      30.35R WCI   5
BAY BRIDGE APT   N/A     19  -4  35 NW20G29   30.35R WCI   4
LEONARDTOWN    PTCLDY    21  -8  27 NW8       30.37R
DOVER          PTCLDY    17  -2  42 NW24G33   30.29R WCI  -1
GEORGETOWN     CLEAR     19  -3  38 NW13G23   30.31R WCI   6
EASTON         MOCLDY    21   0  39 NW23G40   30.37  WCI   5
CAMBRIDGE      PTCLDY    19  -4  35 NW13G25   30.32R WCI   7
SALISBURY      MOCLDY    19  -3  38 NW13G23   30.31R WCI   6
OCEAN CITY     PTCLDY    19  -2  39 NW15G22   30.30R WCI   5
WALLOPS ISLAND FAIR      21  -2  36 NW21G29   30.31R WCI   5
ACCOMACK*      FAIR      23  -2  33 NW17G32   30.31R WCI   9
$$

NCZ012>017-030>032-140000-
NORTH CENTRAL AND EASTERN NORTH CAROLINA

CITY           SKY/WX    TMP DP  RH WIND       PRES   REMARKS
ROANOKE RAPIDS FAIR      30  -2  24 W8G18     30.34R
RALEIGH        PTCLDY    30  -2  25 VRB6      30.35R
ELIZABETH CITY CLEAR     27   5  39 W15       30.31R WCI  15
AHOSKIE*       CLEAR     28  -3  26 NW5       30.34R
EDENTON*       CLEAR     32   0  26 NW8       30.32R
CURRITUCK*     CLEAR     30   2  30 NW6       30.31R
KILL DEVIL HLS CLEAR     29   2  31 NW5       30.28R
MANTEO         CLEAR     30   5  34 N7        30.30R
CAPE HATTERAS  CLEAR     32   8  36 NW12G20   30.29R WCI  23
TARBORO*       FAIR      31  -1  26 NW7G16    30.35R
GOLDSBORO      CLEAR     32   0  25 NW10      30.32R WCI  24
WASHINGTON     CLEAR     30   1  28 NW8       30.32R
GREENVILLE     CLEAR     32   1  27 NW7       30.33R
NEW BERN       CLEAR     32   5  32 NW9       30.33R
WILMINGTON     CLEAR     36   6  28 N7        30.31R
$$

VAZ048-140000-
ELSEWHERE

CITY           SKY/WX    TMP DP  RH WIND       PRES   REMARKS
HARRISBURG PA  MOCLDY    14  -2  49 NW23G29   30.31R WCI  -5
BALTIMORE      PTCLDY    16  -5  39 W16G26    30.35R WCI   1
ANNAPOLIS      CLOUDY    19   1  45 NW13G20   30.36R WCI   6
ANDREWS AFB    FAIR      18  -5  36 W23G29    30.33R WCI   0
PHILADELPHIA   PTCLDY    16 -13  26 NW25G31   30.31R WCI  -3
HENDERSON NC   CLEAR     27  -6  23 NW12      30.34R WCI  16
GREENSBORO     CLEAR     28  -4  25 NW13G20   30.32R WCI  17
ROCKY MOUNT    CLEAR     30   1  29 NW8       30.34R
$$

VAZ100-140000-
MARINE

STATION/POSITION TIME  TEMP    WIND        PRES    WAVE   SWELL
                       AIR SEA DIR/SP/G            HT/PER HT/PER
                 (UTC) (F)     (DEG/KT/KT) (MB)    (FT/S) (FT/S)
BRANDYWINE LGT   2200   19                 1024.3R
CAPE MAY NJ      2200   20 33              1024.0R
LEWES DE         2206   21 37  310/ 28/ 33 1024.7R
15NM E FENWICK I 2250   23 43              1025.0R   7/ 6
OCEAN-CITY-INLET 2200   22 38              1024.0R
WACHAPREAGUE VA  2200   25 35              1025.1R
THOMAS POINT MD  2200          320/ 22       N/A
GOOSES REEF MD   2200   22 37  310/ 21/ 29 1027.2R   3/ 4
COVE POINT MD    2200   20                 1026.9R
SOLOMONS ISLAND  2200   22 38                N/A
BISHOPS HEAD MD  2206   22 32  310/ 18/ 27 1025.6R
PINEY POINT MD   2200          350/ 29/ 33   N/A
POTOMAC MD       2200   25 38  340/ 19/ 25 1025.1R   3/ 4
CAMBRIDGE MD     2200   21 35              1025.6R
LEWISETTA VA     2200   23 36              1026.4R
RAPPAHANNOCK LGT 2200                      1025.2R
STINGRAY PT      2200   27 38  330/ 19/ 25 1025.0R   2/ 3
YORK RVR RNG VA  2200   29                 1024.4R
YORKTOWN VA      2200   29 40              1025.2R
JAMESTOWN VA     2200   29 40  320/ 19/ 27   N/A     1/ 3
DOMINION TERM VA 2200   30                 1024.7R
KIPTOPEKE VA     2200      37                N/A
CHES BAY BRIDGE  2200   29 40              1024.6R
CAPE HENRY VA    2200   29                   N/A
CHESAPEAKE LGHT  2200   29     310/ 26/ 30 1025.2R
WILLOUBY STN VA  2200   29                 1025.8R
CAPE HENRY BUOY  2228      43                N/A     4/ 4
1ST LANDING BUOY 2200      40                N/A     3/ 3
CAPE CHARLES BUO 2226      42                N/A     4/ 3   2/10
OFFSHORE WE BUOY 2221      45                N/A     6/ 4   2/11
64NM E OF VA BCH 2250   30 49  330/ 23/ 29 1024.2R   9/ 7
DUCK PIER NC     2200   31                 1024.0R
44100 DUCK FRF   2224      46                N/A     6/ 6
44056 DUCK FRF   2211      42                N/A     4/ 6
OREGON INLET NC  2200   31 39              1024.4R
HATTERAS NC      2200   33 43              1024.2R
DIAMOND SHLS NC  2250   36 72  330/ 17/ 25 1025.1R   5/ 8   3/ 8
$$



USA.gov is the U.S. government's official web portal to all federal, state and local government web resources and services.